Location: Unspecified
(46.7833°N, 0.0000°E)
Time: 03:11:48
(UTC+00:00)

CAS-6 - Visible Passes

Search period start: 04 April 2026 00:00
Search period end: 14 April 2026 00:00
Orbit: 600 x 619 km, 97.8° (Epoch: 29 March)

Date Brightness Start Highest point End Pass type
(mag) Time Alt. Az. Time Alt. Az. Time Alt. Az.
4 Apr ? 21:11:23 30° NE 21:11:23 30° NE 21:14:08 10° N visible
4 Apr ? 22:48:19 17° NW 22:48:19 17° NW 22:49:42 10° NW visible
5 Apr ? 21:25:22 36° NNE 21:25:22 36° NNE 21:28:13 10° N visible
5 Apr ? 23:02:17 13° WNW 23:02:17 13° WNW 23:03:09 10° NW visible
6 Apr ? 21:39:20 41° N 21:39:20 41° N 21:42:14 10° N visible
7 Apr ? 20:16:23 12° ENE 20:16:37 12° ENE 20:18:15 10° NE visible
7 Apr ? 21:53:19 41° NNW 21:53:19 41° NNW 21:56:11 10° NNW visible
8 Apr ? 20:30:22 16° ENE 20:30:22 16° ENE 20:32:58 10° NNE visible
8 Apr ? 22:07:17 37° NW 22:07:17 37° NW 22:10:04 10° NNW visible
9 Apr ? 20:44:20 21° ENE 20:44:20 21° ENE 20:47:22 10° NNE visible
9 Apr ? 22:21:16 31° NW 22:21:16 31° NW 22:23:53 10° NNW visible
10 Apr ? 20:58:18 27° ENE 20:58:18 27° ENE 21:01:36 10° N visible
10 Apr ? 22:35:14 25° WNW 22:35:14 25° WNW 22:37:37 10° NNW visible
11 Apr ? 21:12:17 36° NE 21:12:17 36° NE 21:15:45 10° N visible
11 Apr ? 22:49:12 19° WNW 22:49:12 19° WNW 22:51:14 10° NW visible
12 Apr ? 21:26:15 47° NE 21:26:15 47° NE 21:29:49 10° N visible
12 Apr ? 23:03:11 15° WNW 23:03:11 15° WNW 23:04:40 10° NW visible
13 Apr ? 21:40:13 57° NNE 21:40:13 57° NNE 21:43:48 10° N visible
13 Apr ? 23:17:09 11° WNW 23:17:09 11° WNW 23:17:41 10° WNW visible
